Latest Weather Observations for Browse Island

IDW60801

Issued at 3:35 am WST Wednesday 22 October 2014 (issued every 30 minutes, with the page automatically refreshed every 10 minutes)

About weather observations | Map of weather stations | Latest weather observations for WA | Other Formats
Station Details ID: 200784 Name: BROWSE ISLAND Lat: -14.11 Lon: 123.55 Height: 3.7 m
Data from the previous 72 hours. | See also: Recent months for locations in Western Australia
Date/Time
WST
Temp
°C
App
Temp
°C
Dew
Point
Rel
Hum
%
Delta-T
°C
Wind Press
QNH
hPa
Press
MSL
hPa
Rain
since 9 am
mm
Dir
 
Spd
km/h
Gust
km/h
Spd
kts
Gust
kts
22/03:30am 28.0 - - - - W 15 15 8 8 1012.0 - -
22/03:00am 27.7 - - - - W 15 17 8 9 1012.0 1012.2 -
22/02:30am 28.0 - - - - WNW 13 - 7 - 1012.0 - -
22/02:00am 27.9 - - - - NW 13 - 7 - 1012.0 1012.2 -
22/01:30am 28.0 - - - - NNW 15 - 8 - 1012.0 - -
22/01:00am 27.9 - - - - NNW 19 - 10 - 1012.0 1012.2 -
22/12:30am 28.0 - - - - NNW 20 - 11 - 1012.0 - -
22/12:00am 27.8 - - - - NNW 20 22 11 12 1012.0 1012.4 -
 
Date/Time
WST
Temp
°C
App
Temp
°C
Dew
Point
Rel
Hum
%
Delta-T
°C
Wind Press
QNH
hPa
Press
MSL
hPa
Rain
since 9 am
mm
Dir
 
Spd
km/h
Gust
km/h
Spd
kts
Gust
kts
21/11:30pm 28.0 - - - - NNW 20 - 11 - 1012.0 - -
21/11:00pm 28.0 - - - - NNW 19 - 10 - 1013.0 1013.0 -
21/10:30pm 28.0 - - - - NW 17 - 9 - 1013.0 - -
21/10:00pm 28.1 - - - - NW 17 - 9 - 1013.0 1013.8 -
21/09:30pm 28.0 - - - - NW 15 - 8 - 1014.0 - -
21/09:00pm 28.2 - - - - NW 15 - 8 - 1013.0 1013.8 -
21/08:30pm 28.0 - - - - NW 15 - 8 - 1013.0 - -
21/08:00pm 28.2 - - - - WNW 15 - 8 - 1013.0 1013.6 -
21/07:30pm 28.0 - - - - WNW 13 - 7 - 1013.0 - -
21/07:00pm 28.4 - - - - W 15 - 8 - 1013.0 1013.3 -
21/06:30pm 28.0 - - - - W 15 - 8 - 1013.0 - -
21/06:00pm 28.5 - - - - W 15 15 8 8 1013.0 1012.9 -
21/05:30pm 29.0 - - - - W 15 - 8 - 1012.0 - -
21/05:00pm 28.6 - - - - W 17 - 9 - 1012.0 1012.1 -
21/04:30pm 29.0 - - - - W 17 - 9 - 1011.0 - -
21/04:00pm 28.8 - - - - W 20 - 11 - 1011.0 1011.6 -
21/03:30pm 29.0 - - - - W 19 - 10 - 1011.0 - -
21/03:00pm 28.9 - - - - W 19 - 10 - 1011.0 1011.8 -
21/02:30pm 29.0 - - - - W 19 - 10 - 1012.0 - -
21/02:00pm 29.0 - - - - W 17 - 9 - 1012.0 1012.2 -
21/01:30pm 29.0 - - - - W 17 - 9 - 1012.0 - -
21/01:00pm 29.2 - - - - W 20 - 11 - 1013.0 1013.2 -
21/12:30pm 30.0 - - - - W 20 - 11 - 1013.0 - -
21/12:00pm 29.5 - - - - W 19 - 10 - 1014.0 1014.0 -
21/11:30am 30.0 - - - - W 19 - 10 - 1014.0 - -
21/11:00am 29.2 - - - - W 24 - 13 - 1014.0 1014.5 -
21/10:30am 29.0 - - - - W 24 - 13 - 1014.0 - -
21/10:00am 28.9 - - - - W 19 - 10 - 1015.0 1015.1 -
21/09:30am 29.0 - - - - WNW 19 - 10 - 1015.0 - -
21/09:00am 28.8 - - - - W 17 - 9 - 1015.0 1015.5 -
21/08:30am 29.0 - - - - W 19 - 10 - 1015.0 - -
21/08:00am 28.5 - - - - W 17 - 9 - 1015.0 1015.3 -
21/07:30am 28.0 - - - - W 15 - 8 - 1015.0 - -
21/07:00am 28.4 - - - - W 15 17 8 9 1015.0 1014.9 -
21/06:30am 28.0 - - - - WSW 15 - 8 - 1014.0 - -
21/06:00am 28.0 - - - - SW 17 - 9 - 1014.0 1014.2 -
21/05:30am 28.0 - - - - SW 15 - 8 - 1014.0 - -
21/05:00am 27.7 - - - - WSW 13 - 7 - 1013.0 1013.5 -
21/04:30am 28.0 - - - - WSW 13 - 7 - 1013.0 - -
21/04:00am 27.6 - - - - SW 11 - 6 - 1013.0 1013.1 -
21/03:30am 28.0 - - - - SW 13 - 7 - 1013.0 - -
21/03:00am 27.8 - - - - SW 17 - 9 - 1012.0 1012.6 -
21/02:30am 28.0 - - - - SW 19 - 10 - 1012.0 - -
21/02:00am 28.1 - - - - SW 22 - 12 - 1012.0 1012.1 -
21/01:30am 28.0 - - - - SW 22 - 12 - 1012.0 - -
21/01:00am 28.2 - - - - WSW 20 - 11 - 1012.0 1012.2 -
21/12:30am 28.0 - - - - WSW 19 - 10 - 1012.0 - -
21/12:00am 28.3 - - - - WSW 19 - 10 - 1013.0 1012.9 -
 
Date/Time
WST
Temp
°C
App
Temp
°C
Dew
Point
Rel
Hum
%
Delta-T
°C
Wind Press
QNH
hPa
Press
MSL
hPa
Rain
since 9 am
mm
Dir
 
Spd
km/h
Gust
km/h
Spd
kts
Gust
kts
20/11:30pm 28.0 - - - - W 17 - 9 - 1013.0 - -
20/11:00pm 28.2 - - - - W 17 - 9 - 1013.0 1013.7 -
20/10:30pm 28.0 - - - - W 17 - 9 - 1013.0 - -
20/10:00pm 28.1 - - - - W 17 - 9 - 1014.0 1014.0 -
20/09:30pm 28.0 - - - - W 17 - 9 - 1014.0 - -
20/09:00pm 28.1 - - - - W 17 - 9 - 1014.0 1013.9 -
20/08:30pm 28.0 - - - - W 19 - 10 - 1014.0 - -
20/08:00pm 28.0 - - - - W 19 - 10 - 1013.0 1013.6 -
20/07:30pm 28.0 - - - - W 19 - 10 - 1013.0 - -
20/07:00pm 28.0 - - - - W 19 - 10 - 1013.0 1013.0 -
20/06:30pm 28.0 - - - - W 19 - 10 - 1012.0 - -
20/06:00pm 27.9 - - - - W 17 - 9 - 1012.0 1012.2 -
20/05:30pm 28.0 - - - - W 15 - 8 - 1012.0 - -
20/05:00pm 28.2 - - - - WSW 11 - 6 - 1012.0 1012.0 -
20/04:30pm 28.0 - - - - WSW 13 - 7 - 1012.0 - -
20/04:00pm 28.4 - - - - WSW 11 - 6 - 1011.0 1011.8 -
20/03:30pm 28.0 - - - - SSW 9 - 5 - 1012.0 - -
20/03:00pm 29.2 - - - - S 9 - 5 - 1012.0 1012.3 -
20/02:30pm 29.0 - - - - SSW 11 - 6 - 1012.0 - -
20/02:00pm 29.3 - - - - S 7 - 4 - 1012.0 1012.6 -
20/01:30pm 29.0 - - - - S 9 - 5 - 1012.0 - -
20/01:00pm 29.3 - - - - SSE 9 - 5 - 1013.0 1013.3 -
20/12:30pm 29.0 - - - - S 13 - 7 - 1013.0 - -
20/12:00pm 27.9 - - - - S 19 - 10 - 1013.0 1013.4 -
20/11:30am 28.0 - - - - S 17 - 9 - 1013.0 - -
20/11:00am 28.1 - - - - S 17 - 9 - 1014.0 1014.3 -
20/10:30am 28.0 - - - - S 17 - 9 - 1014.0 - -
20/10:00am 27.9 - - - - S 13 - 7 - 1015.0 1015.0 -
20/09:30am 28.0 - - - - S 13 - 7 - 1015.0 - -
20/09:00am 27.8 - - - - S 15 - 8 - 1015.0 1015.4 -
20/08:30am 28.0 - - - - S 13 - 7 - 1015.0 - -
20/08:00am 27.7 - - - - S 13 - 7 - 1015.0 1015.3 -
20/07:30am 28.0 - - - - S 17 - 9 - 1015.0 - -
20/07:00am 27.4 - - - - SSW 15 - 8 - 1014.0 1014.6 -
20/06:30am 27.0 - - - - SSW 13 - 7 - 1014.0 - -
20/06:00am 27.1 - - - - SSW 17 - 9 - 1014.0 1013.9 -
20/05:30am 27.0 - - - - SSW 17 - 9 - 1013.0 - -
20/05:00am 27.1 - - - - SSW 19 - 10 - 1013.0 1013.3 -
20/04:30am 27.0 - - - - SSW 19 - 10 - 1013.0 - -
20/04:00am 27.3 - - - - SW 19 - 10 - 1012.0 1012.5 -
20/03:30am 27.0 - - - - SW 13 - 7 - 1012.0 - -
20/03:00am 27.3 - - - - SW 9 - 5 - 1012.0 1012.1 -
20/02:30am 27.0 - - - - WSW 9 - 5 - 1012.0 - -
20/02:00am 27.2 - - - - W 7 - 4 - 1012.0 1012.0 -
20/01:30am 27.0 - - - - W 9 - 5 - 1012.0 - -
20/01:00am 27.2 - - - - WNW 7 - 4 - 1012.0 1012.3 -
20/12:30am 27.0 - - - - WNW 9 - 5 - 1012.0 - -
20/12:00am 27.4 - - - - NW 9 - 5 - 1013.0 1012.9 -
 
Date/Time
WST
Temp
°C
App
Temp
°C
Dew
Point
Rel
Hum
%
Delta-T
°C
Wind Press
QNH
hPa
Press
MSL
hPa
Rain
since 9 am
mm
Dir
 
Spd
km/h
Gust
km/h
Spd
kts
Gust
kts
19/11:30pm 27.0 - - - - WNW 9 - 5 - 1013.0 - -
19/11:00pm 27.5 - - - - WNW 9 - 5 - 1013.0 1013.5 -
19/10:30pm 27.0 - - - - W 9 - 5 - 1013.0 - -
19/10:00pm 27.6 - - - - W 11 - 6 - 1014.0 1013.9 -
19/09:30pm 27.0 - - - - W 11 - 6 - 1014.0 - -
19/09:00pm 27.7 - - - - W 11 - 6 - 1013.0 1013.8 -
19/08:30pm 28.0 - - - - WNW 13 - 7 - 1013.0 - -
19/08:00pm 27.6 - - - - WNW 13 - 7 - 1013.0 1013.2 -
19/07:30pm 28.0 - - - - NW 15 - 8 - 1012.0 - -
19/07:00pm 27.6 - - - - NW 11 - 6 - 1012.0 1012.8 -
19/06:30pm 28.0 - - - - NNW 11 - 6 - 1012.0 - -
19/06:00pm 27.7 - - - - N 9 - 5 - 1012.0 1012.4 -
19/05:30pm 28.0 - - - - NNE 6 - 3 - 1012.0 - -
19/05:00pm 28.3 - - - - NE 7 - 4 - 1012.0 1012.0 -
19/04:30pm 29.0 - - - - SE 6 - 3 - 1011.0 - -
19/04:00pm 28.4 - - - - SSE 9 - 5 - 1011.0 1011.6 -
19/03:30pm 29.0 - - - - SSE 11 - 6 - 1011.0 - -
19/03:00pm 28.8 - - - - SSE 13 - 7 - 1011.0 1011.5 -
19/02:30pm 29.0 - - - - SSE 15 - 8 - 1011.0 - -
19/02:00pm 28.5 - - - - SSE 15 - 8 - 1011.0 1011.6 -
19/01:30pm 28.0 - - - - S 19 - 10 - 1011.0 - -
19/01:00pm 28.5 - - - - S 17 - 9 - 1012.0 1011.9 -
19/12:30pm 28.0 - - - - S 17 - 9 - 1012.0 - -
19/12:00pm 28.4 - - - - S 15 - 8 - 1012.0 1012.5 -
19/11:30am 29.0 - - - - S 13 - 7 - 1013.0 - -
19/11:00am 28.5 - - - - S 17 - 9 - 1013.0 1013.2 -
19/10:30am 29.0 - - - - S 15 - 8 - 1013.0 - -
19/10:00am 27.9 - - - - S 17 - 9 - 1013.0 1013.8 -
19/09:30am 28.0 - - - - S 19 - 10 - 1014.0 - -
19/09:00am 27.4 - - - - S 20 - 11 - 1014.0 1014.0 -
19/08:30am 28.0 - - - - S 19 - 10 - 1014.0 - -
19/08:00am 27.5 - - - - S 19 - 10 - 1014.0 1014.0 -
19/07:30am 27.0 - - - - S 15 - 8 - 1013.0 - -
19/07:00am 27.3 - - - - S 15 - 8 - 1013.0 1013.2 -
19/06:30am 27.0 - - - - SSW 15 - 8 - 1013.0 - -
19/06:00am 27.2 - - - - SSW 11 - 6 - 1012.0 1012.6 -
19/05:30am 27.0 - - - - SW 11 - 6 - 1012.0 - -
19/05:00am 27.0 - - - - SW 11 - 6 - 1012.0 1011.9 -
19/04:30am 27.0 - - - - SSW 9 - 5 - 1011.0 - -
19/04:00am 26.8 - - - - SSW 9 - 5 - 1011.0 1011.7 -

Other Formats:

Comma delimited format used in spreadsheet applications
http://www.bom.gov.au/fwo/IDW60801/IDW60801.94103.axf

JavaScript Object Notation format (JSON) in row-major order
http://www.bom.gov.au/fwo/IDW60801/IDW60801.94103.json